Phoenix Deer Valley, AZ

4:13 PM MST on November 12, 2019 (GMT -0700)
Phoenix-Deer Valley Municipal

Weather History for KDVT - September, 2019

Change the Weather History Date:

Thursday, September 12, 2019

  Actual Average Record
Temperature  
Mean Temperature 88 °F -  
Max Temperature 100 °F 96 °F 107 °F (2017)
Min Temperature 75 °F 75 °F 66 °F (2005)
Cooling Degree Days 22    
Growing Degree Days 38 (Base 50)    
Moisture  
Dew Point 46 °F    
Average Humidity 26    
Maximum Humidity 46    
Minimum Humidity 10    
Precipitation  
Precipitation 0.00 in - - ()
Sea Level Pressure  
Sea Level Pressure 29.87 in    
Wind  
Wind Speed 4 mph ()    
Max Wind Speed 12 mph    
Max Gust Speed 20 mph    
Visibility 10.0 miles    
Events      
Averages and records for this station are not official NWS values.
T = Trace of Precipitation, MM = Missing Value Source: Averaged Metar Reports

Daily Weather History Graph

Daily Weather History Graph

Search for Another Location

Airport or City:

Astronomy

Sep. 12, 2019 Rise Set
Actual Time 6:09 AM MST 6:39 PM MST
Civil Twilight 5:44 AM MST 7:04 PM MST
Nautical Twilight 5:15 AM MST 7:33 PM MST
Astronomical Twilight 4:45 AM MST 8:03 PM MST
Moon 6:19 PM MST 4:40 AM MST
Length of Visible Light 13h 19m
Length of Day
12h 29m
Waxing Gibbous, 98% of the Moon is Illuminated
Sep 12
Waxing Gibbous
Sep 13
Full
Sep 21
Last Quarter
Sep 28
New
Oct 5
First Quarter

Hourly Weather History & Observations

Time (MST) Temp. Heat Index Dew Point Humidity Pressure Visibility Wind Dir Wind Speed Gust Speed Precip Events Conditions
12:53 AM 81.0 °F 80.5 °F 54.0 °F 39% 29.89 in 10.0 mi NNE 5.8 mph - N/A   Clear
1:53 AM 80.1 °F 79.9 °F 53.1 °F 39% 29.90 in 10.0 mi NE 3.5 mph - N/A   Clear
2:53 AM 79.0 °F - 54.0 °F 42% 29.90 in 10.0 mi Calm Calm - N/A   Clear
3:53 AM 78.1 °F - 54.0 °F 43% 29.90 in 10.0 mi NNE 6.9 mph - N/A   Clear
5:53 AM 75.9 °F - 54.0 °F 46% 29.91 in 10.0 mi Calm Calm - N/A   Clear
6:53 AM 77.0 °F - 54.0 °F 45% 29.92 in 10.0 mi Calm Calm - N/A   Clear
7:53 AM 82.0 °F 81.3 °F 54.0 °F 38% 29.93 in 10.0 mi Calm Calm - N/A   Clear
8:53 AM 86.0 °F 84.0 °F 53.1 °F 32% 29.94 in 10.0 mi SE 3.5 mph - N/A   Clear
9:53 AM 91.0 °F - 52.0 °F 26% 29.94 in 10.0 mi Variable 4.6 mph - N/A   Clear
10:53 AM 91.9 °F - 52.0 °F 26% 29.92 in 10.0 mi South 6.9 mph - N/A   Clear
12:13 PM 95.0 °F - 46.9 °F 19% 29.97 in 10.0 mi WSW 11.5 mph - N/A   Clear
12:53 PM 98.1 °F - 39.0 °F 13% 29.88 in 10.0 mi NW 9.2 mph 19.6 mph N/A   Clear
1:53 PM 100.9 °F - 36.0 °F 11% 29.85 in 10.0 mi West 11.5 mph 18.4 mph N/A   Clear
2:53 PM 99.0 °F - 35.1 °F 11% 29.83 in 10.0 mi WNW 5.8 mph - N/A   Clear
3:53 PM 100.9 °F - 34.0 °F 10% 29.80 in 10.0 mi NW 9.2 mph - N/A   Clear
4:53 PM 100.0 °F - 37.0 °F 11% 29.79 in 10.0 mi WSW 8.1 mph - N/A   Clear
5:53 PM 98.1 °F - 39.0 °F 13% 29.79 in 10.0 mi SW 11.5 mph - N/A   Clear
6:53 PM 96.1 °F - 39.9 °F 14% 29.80 in 10.0 mi SW 6.9 mph - N/A   Clear
7:53 PM 93.0 °F - 44.1 °F 18% 29.81 in 10.0 mi SW 4.6 mph - N/A   Clear
8:53 PM 90.0 °F - 46.9 °F 23% 29.83 in 10.0 mi West 5.8 mph - N/A   Clear
9:53 PM 88.0 °F - 46.9 °F 24% 29.83 in 10.0 mi East 4.6 mph - N/A   Clear
10:53 PM 82.9 °F - 46.0 °F 27% 29.83 in 10.0 mi Calm Calm - N/A   Clear
11:53 PM 82.0 °F - 42.1 °F 24% 29.83 in 10.0 mi NNE 8.1 mph - N/A   Clear